Vorticity
40 28 37 32 37 39 27 80 -2 11 44 24 12 10 10 6 8 10 6 5 4 5 4 5 5 6 6 5 2 6 10 6 4 2 3 4 5 5 5 5 6 6 4 6 9 8 2 4 8 6 7 4 4 1
-0 24 13 14 84 30 43 53 -13 54 11 16 11 9 9 7 8 7 4 6 5 5 4 3 5 4 5 4 6 7 3 6 6 7 5 2 2 3 5 6 5 7 6 7 4 4 4 6 7 3 10 7 4 1
9 21 21 10 38 7 22 45 -19 4 11 9 10 11 7 8 7 7 6 6 4 4 5 2 3 5 3 4 4 4 6 8 4 5 7 6 6 6 4 2 5 6 5 7 4 2 2 -0 0 2 5 3 5 4
9 30 -0 3 13 28 -5 24 41 50 8 10 6 10 3 8 6 6 4 6 6 4 5 5 4 3 3 3 3 3 5 5 7 9 6 2 3 3 4 8 8 3 4 3 5 5 6 7 8 8 5 6 7 8
7 28 7 25 19 10 4 32 46 6 9 5 3 9 4 8 7 6 6 6 6 3 3 4 4 3 3 5 3 3 6 2 2 3 7 10 7 7 6 8 7 4 5 7 8 7 5 6 7 8 6 6 7 9
14 19 23 -2 13 -12 -4 24 25 -2 12 6 4 11 -3 7 6 5 6 5 5 6 4 3 4 5 3 -1 -0 1 6 6 0 4 6 6 10 5 3 6 6 8 8 8 9 9 9 10 10 9 7 8 4 4
19 24 24 -12 8 3 60 10 7 13 22 -4 11 6 5 2 7 6 6 4 5 7 5 4 5 4 -3 -14 -8 8 8 17 5 12 15 10 14 12 8 9 7 8 7 8 7 7 8 10 11 14 13 11 11 14
16 24 19 4 15 0 6 35 3 23 33 -0 7 3 8 7 5 7 7 5 6 4 4 -1 5 10 -16 4 5 7 14 12 16 13 9 8 13 16 9 4 6 5 5 3 4 6 8 9 8 9 10 10 10 12
12 20 22 24 -3 19 8 9 23 20 35 -8 13 10 3 4 7 4 4 5 5 5 7 0 -14 -12 5 6 11 22 2 2 14 11 4 5 11 14 14 8 6 5 4 3 4 7 10 11 12 10 8 10 11 11
14 15 21 25 23 5 13 4 9 10 22 17 12 2 3 17 4 3 2 -4 -5 -2 4 4 8 6 -4 13 3 -3 9 17 19 15 8 7 12 12 11 7 5 5 5 8 7 8 10 10 9 11 12 12 11 8
14 14 17 19 22 28 28 -17 3 23 17 23 37 27 22 34 8 3 8 1 -1 0 4 6 5 8 11 13 14 17 17 15 12 14 9 7 13 12 9 8 8 10 9 7 7 10 12 11 11 11 12 12 11 11
8 16 14 18 17 17 25 15 27 -8 -15 17 29 10 -5 -11 34 41 14 28 39 39 18 11 15 22 17 15 19 19 22 21 15 13 13 11 12 9 9 7 7 7 8 10 11 8 8 11 11 10 8 6 6 5
15 10 13 11 16 16 20 19 18 23 13 13 15 2 12 -11 1 14 9 -6 19 19 21 21 13 11 20 12 9 11 14 16 13 10 10 14 14 16 17 17 14 12 9 7 8 10 11 9 4 5 7 5 2 2
13 17 16 12 10 14 14 19 15 13 17 22 13 1 19 15 14 23 13 4 20 16 5 5 8 9 10 12 14 11 13 12 15 12 9 11 13 13 9 8 8 7 7 9 10 9 8 5 3 3 3 6 8 13
10 10 13 16 15 13 12 14 14 18 17 11 11 10 13 10 12 11 12 6 12 7 4 8 9 8 9 8 5 7 7 8 9 10 10 8 7 7 9 10 9 6 6 7 7 7 4 2 3 7 9 10 10 6
11 11 10 10 14 18 15 15 17 17 17 15 16 22 15 14 12 9 8 12 16 7 12 13 12 10 6 5 9 7 8 10 11 11 10 9 9 9 8 7 6 6 6 4 4 8 10 12 12 11 11 11 10 11
11 11 11 11 10 9 12 14 13 13 11 15 14 11 14 21 11 12 9 7 6 11 13 11 10 9 7 4 6 7 13 16 11 10 8 8 7 7 7 8 7 7 10 11 11 9 9 10 11 9 9 8 11 9
12 12 12 12 12 12 11 10 12 10 10 10 10 11 15 14 13 10 9 11 13 16 13 8 12 10 9 12 11 8 8 1 1 3 3 4 6 9 12 14 14 12 11 11 10 10 9 9 8 8 6 8 11 10
11 11 11 12 12 12 11 12 12 13 12 11 11 12 13 11 12 11 11 12 12 12 11 11 7 7 7 8 7 7 5 2 4 8 12 14 14 12 10 10 9 8 8 7 7 6 7 7 7 10 13 12 13 11
10 10 11 13 12 13 13 15 11 14 14 14 12 12 10 10 10 10 9 9 10 10 13 13 15 10 7 7 10 10 13 15 10 9 8 8 6 8 8 8 7 5 4 6 7 11 15 14 12 12 11 11 11 11
15 16 17 16 16 15 13 19 16 12 15 14 14 13 13 13 10 10 9 8 10 9 10 8 9 10 11 9 8 7 6 8 6 9 9 10 10 10 9 7 8 10 12 14 12 12 12 15 15 15 15 15 16 18
11 11 13 15 15 16 16 20 16 16 20 13 14 11 12 14 14 14 13 12 12 12 11 11 9 9 9 8 7 8 9 10 10 9 9 9 8 9 10 11 14 14 15 15 17 17 17 15 15 17 17 17 17 18
18 20 22 23 25 28 22 22 23 18 21 20 21 17 15 14 14 16 15 14 16 15 15 14 13 13 13 14 15 15 14 15 15 15 15 15 15 15 16 16 16 16 17 17 16 14 15 19 21 21 19 18 18 19
16 6 2 5 6 8 5 7 9 14 22 24 22 22 24 23 24 20 17 17 15 16 16 16 16 17 17 18 19 19 19 19 18 18 18 17 18 19 20 22 24 24 24 24 25 23 21 16 15 18 20 21 22 22
6 12 10 15 17 18 18 20 20 18 18 21 22 23 21 18 16 22 28 28 29 30 29 28 27 25 23 22 22 23 21 20 19 21 22 26 30 31 31 29 24 23 21 16 13 14 16 19 18 15 10 7 4 3
22 23 18 17 21 24 19 18 19 23 27 26 23 22 14 11 17 18 19 17 15 13 17 20 20 20 22 24 25 29 29 31 35 33 25 18 14 11 12 12 12 13 15 13 11 10 8 7 5 5 5 6 7 8
18 16 19 20 18 17 15 15 11 9 5 9 31 29 31 28 24 19 20 18 20 21 21 26 30 35 33 30 28 21 13 6 6 7 4 3 5 9 13 12 11 11 8 8 7 6 8 11 13 14 15 14 13 13
21 14 9 12 11 5 8 9 9 10 14 19 12 13 11 9 12 18 12 10 11 10 9 9 5 6 6 6 6 3 1 6 6 6 11 14 12 10 8 8 8 11 15 15 15 15 13 13 13 13 13 13 13 12
15 13 25 30 20 10 8 6 13 10 9 21 11 6 10 7 7 6 4 5 10 8 7 7 4 7 7 6 8 8 8 10 10 7 6 9 10 13 13 16 15 13 11 10 11 11 12 12 14 15 16 17 19 25
4 -4 4 25 19 23 28 23 14 9 8 12 15 10 12 10 9 7 4 10 10 8 8 9 10 13 12 11 10 10 6 8 9 11 13 14 11 13 12 9 9 12 14 17 20 22 24 24 23 23 28 31 30 27
3 0 -2 -5 14 26 12 19 26 19 17 17 16 17 15 11 12 13 14 14 13 14 13 10 8 8 9 11 11 13 16 17 17 20 15 12 12 8 8 17 21 22 22 23 27 32 37 38 34 32 30 28 29 28
-7 7 12 11 3 10 20 14 9 11 13 13 13 10 13 16 16 13 11 9 7 8 9 10 12 12 12 13 13 10 7 8 9 10 12 10 9 19 22 30 27 27 31 34 32 27 25 25 26 23 12 7 6 7
1 3 3 9 8 7 15 8 16 14 10 9 9 7 7 5 5 7 9 8 7 11 13 14 12 10 9 8 6 9 11 8 12 17 9 17 22 34 26 24 26 26 24 22 19 13 8 8 8 7 8 15 17 15
Height
5451 5447 5441 5435 5431 5436 5449 5464 5484 5501 5520 5540 5559 5575 5591 5602 5613 5624 5634 5642 5650 5656 5660 5664 5667 5669 5670 5671 5673 5674 5676 5676 5677 5678 5679 5678 5678 5678 5678 5678 5678 5678 5679 5679 5679 5680 5681 5681 5683 5684 5684 5685 5686 5687
5444 5440 5435 5429 5420 5427 5440 5457 5475 5494 5513 5532 5548 5564 5578 5591 5602 5613 5623 5631 5638 5645 5651 5656 5658 5662 5664 5666 5667 5668 5670 5671 5672 5673 5674 5675 5675 5676 5676 5676 5676 5677 5677 5677 5678 5678 5679 5680 5681 5682 5682 5683 5683 5683
5441 5439 5438 5435 5433 5438 5451 5466 5479 5495 5509 5526 5541 5556 5569 5580 5592 5602 5612 5620 5628 5634 5641 5647 5650 5654 5657 5659 5661 5664 5664 5666 5667 5668 5669 5670 5671 5672 5672 5672 5672 5672 5672 5673 5674 5675 5675 5676 5677 5677 5677 5677 5676 5676
5438 5438 5439 5439 5443 5451 5458 5470 5479 5489 5506 5522 5535 5548 5559 5571 5581 5592 5601 5609 5617 5624 5630 5637 5641 5645 5648 5651 5654 5656 5657 5659 5660 5662 5663 5664 5664 5666 5667 5667 5667 5665 5665 5667 5669 5668 5670 5670 5670 5669 5669 5669 5669 5668
5436 5436 5439 5443 5449 5450 5458 5467 5477 5490 5504 5516 5529 5542 5552 5563 5572 5581 5590 5598 5605 5613 5619 5625 5630 5635 5639 5643 5646 5648 5650 5652 5653 5654 5655 5656 5657 5657 5659 5662 5661 5655 5655 5660 5661 5661 5661 5662 5661 5660 5660 5659 5658 5657
5431 5433 5437 5443 5448 5452 5458 5465 5475 5488 5500 5512 5525 5536 5546 5555 5564 5571 5580 5589 5596 5602 5608 5613 5619 5624 5629 5633 5637 5639 5641 5643 5644 5645 5646 5648 5649 5648 5650 5654 5652 5648 5647 5651 5652 5652 5651 5650 5650 5650 5650 5649 5647 5646
5427 5430 5433 5440 5446 5452 5459 5469 5478 5485 5496 5507 5519 5530 5540 5547 5554 5562 5572 5582 5585 5590 5595 5600 5607 5616 5621 5624 5626 5628 5629 5631 5633 5634 5637 5638 5639 5637 5641 5644 5642 5641 5641 5642 5642 5641 5641 5639 5639 5639 5639 5638 5636 5634
5424 5427 5431 5437 5444 5451 5458 5467 5475 5483 5493 5502 5513 5524 5531 5537 5544 5553 5561 5570 5574 5578 5583 5590 5598 5606 5611 5614 5615 5616 5617 5618 5620 5622 5626 5628 5628 5628 5630 5633 5632 5633 5633 5632 5631 5631 5630 5628 5627 5627 5626 5625 5623 5622
5421 5425 5428 5432 5440 5447 5455 5463 5472 5480 5490 5497 5503 5510 5520 5527 5537 5544 5551 5558 5562 5568 5572 5579 5587 5593 5598 5601 5603 5605 5606 5607 5608 5611 5614 5616 5617 5617 5620 5620 5620 5622 5623 5623 5622 5620 5619 5618 5617 5615 5614 5612 5610 5609
5419 5422 5426 5431 5437 5443 5450 5458 5466 5474 5481 5491 5499 5505 5511 5517 5526 5534 5539 5542 5548 5554 5561 5569 5576 5580 5586 5589 5589 5592 5592 5594 5596 5601 5602 5604 5607 5607 5607 5608 5608 5609 5610 5610 5609 5608 5607 5606 5605 5604 5603 5601 5600 5598
5416 5419 5423 5426 5432 5438 5445 5452 5459 5467 5475 5483 5491 5500 5507 5514 5520 5523 5526 5531 5535 5543 5551 5558 5563 5568 5573 5576 5577 5578 5578 5580 5584 5588 5589 5592 5594 5595 5595 5596 5596 5596 5595 5596 5596 5596 5595 5594 5593 5592 5591 5589 5587 5586
5413 5415 5419 5424 5428 5433 5439 5446 5453 5461 5468 5475 5482 5491 5499 5504 5505 5509 5513 5519 5527 5534 5541 5545 5551 5555 5559 5562 5564 5566 5566 5568 5572 5574 5576 5579 5581 5582 5583 5584 5584 5584 5583 5583 5583 5583 5582 5582 5581 5580 5578 5577 5575 5573
5410 5413 5415 5418 5424 5428 5434 5440 5446 5454 5461 5468 5475 5481 5487 5490 5495 5500 5505 5510 5517 5522 5528 5534 5539 5543 5547 5549 5550 5552 5554 5557 5559 5560 5562 5568 5570 5571 5572 5572 5571 5571 5571 5570 5570 5570 5570 5570 5569 5568 5566 5564 5561 5558
5406 5409 5412 5416 5419 5423 5429 5434 5439 5447 5454 5460 5465 5470 5474 5478 5484 5490 5496 5502 5507 5513 5518 5523 5527 5531 5534 5536 5536 5538 5542 5547 5548 5550 5552 5555 5558 5560 5561 5560 5559 5559 5558 5558 5558 5557 5557 5556 5555 5553 5551 5548 5545 5542
5403 5406 5409 5412 5415 5419 5423 5427 5433 5439 5443 5450 5455 5459 5464 5470 5475 5481 5486 5492 5497 5502 5507 5511 5516 5519 5521 5522 5524 5526 5530 5534 5538 5540 5543 5544 5546 5547 5547 5547 5547 5546 5546 5546 5546 5545 5544 5543 5541 5539 5535 5532 5530 5527
5400 5403 5406 5409 5411 5415 5418 5422 5426 5430 5434 5440 5445 5450 5454 5460 5465 5471 5477 5483 5487 5491 5496 5499 5502 5505 5507 5509 5512 5514 5519 5523 5526 5528 5530 5532 5532 5533 5534 5534 5535 5535 5535 5534 5533 5531 5530 5528 5526 5524 5521 5518 5515 5511
5397 5400 5402 5405 5407 5411 5414 5417 5420 5422 5426 5431 5435 5439 5443 5449 5456 5461 5467 5473 5478 5482 5486 5489 5492 5493 5496 5498 5501 5503 5507 5510 5513 5516 5518 5519 5519 5520 5520 5520 5520 5521 5520 5519 5518 5516 5514 5512 5510 5507 5505 5502 5498 5495
5393 5395 5397 5399 5402 5405 5408 5411 5415 5418 5420 5423 5427 5431 5435 5440 5445 5450 5456 5462 5467 5472 5477 5480 5483 5484 5486 5486 5489 5492 5495 5498 5501 5503 5504 5505 5506 5506 5506 5506 5506 5505 5504 5503 5502 5500 5498 5496 5494 5491 5489 5486 5482 5478
5389 5391 5393 5395 5397 5399 5402 5405 5408 5410 5413 5416 5420 5424 5427 5430 5435 5440 5445 5450 5455 5460 5464 5467 5470 5473 5473 5474 5476 5478 5481 5485 5488 5489 5489 5490 5491 5491 5491 5490 5489 5488 5487 5486 5485 5483 5481 5479 5477 5475 5472 5468 5463 5458
5384 5386 5388 5389 5391 5394 5396 5398 5400 5402 5404 5408 5411 5415 5418 5421 5426 5429 5434 5439 5443 5448 5453 5455 5456 5456 5458 5461 5463 5464 5466 5470 5471 5473 5473 5474 5475 5474 5474 5474 5472 5470 5469 5467 5466 5464 5462 5459 5457 5454 5450 5447 5443 5439
5379 5380 5382 5383 5384 5387 5389 5390 5391 5393 5395 5398 5401 5404 5407 5411 5415 5419 5423 5427 5432 5435 5439 5441 5442 5443 5445 5447 5451 5453 5454 5455 5456 5457 5457 5458 5457 5456 5455 5454 5453 5452 5451 5450 5448 5446 5443 5441 5438 5435 5432 5429 5425 5422
5374 5374 5375 5375 5376 5378 5380 5381 5383 5384 5388 5389 5391 5393 5396 5400 5402 5406 5412 5417 5420 5423 5425 5427 5429 5431 5431 5433 5436 5437 5439 5440 5441 5441 5441 5441 5440 5439 5438 5437 5436 5435 5434 5432 5430 5428 5425 5423 5421 5418 5415 5412 5409 5405
5368 5369 5369 5370 5371 5372 5374 5373 5375 5375 5377 5379 5381 5383 5386 5388 5390 5395 5399 5403 5406 5408 5409 5411 5414 5416 5418 5419 5421 5422 5423 5423 5424 5425 5424 5424 5424 5423 5423 5422 5420 5419 5417 5416 5415 5412 5410 5409 5406 5403 5401 5398 5395 5393
5366 5366 5366 5367 5368 5368 5369 5368 5368 5369 5371 5372 5373 5375 5376 5378 5380 5383 5387 5390 5392 5393 5396 5398 5400 5402 5403 5404 5405 5406 5407 5408 5408 5409 5409 5409 5409 5409 5408 5407 5406 5405 5403 5402 5401 5399 5397 5395 5393 5391 5389 5387 5383 5380
5364 5364 5363 5363 5362 5362 5362 5363 5363 5364 5365 5366 5367 5368 5370 5371 5372 5375 5377 5379 5381 5382 5384 5386 5387 5388 5389 5390 5391 5392 5393 5394 5395 5395 5396 5396 5396 5396 5396 5396 5395 5393 5392 5391 5389 5387 5385 5383 5382 5380 5378 5376 5374 5371
5358 5358 5358 5358 5358 5359 5359 5359 5360 5360 5361 5361 5362 5363 5364 5366 5369 5371 5372 5374 5375 5376 5377 5378 5379 5380 5381 5381 5383 5384 5385 5386 5387 5387 5388 5388 5388 5388 5387 5387 5386 5384 5382 5380 5379 5377 5375 5374 5372 5370 5368 5365 5362 5360
5357 5357 5357 5357 5358 5359 5359 5360 5361 5361 5361 5361 5361 5361 5362 5365 5367 5369 5370 5371 5372 5373 5374 5375 5375 5376 5377 5378 5379 5380 5381 5382 5383 5383 5383 5383 5382 5381 5380 5378 5377 5375 5373 5371 5370 5368 5365 5363 5360 5358 5356 5353 5350 5348
5359 5359 5359 5360 5360 5361 5361 5362 5362 5362 5362 5363 5364 5364 5365 5366 5368 5369 5370 5371 5372 5373 5374 5375 5376 5377 5377 5378 5379 5379 5379 5379 5379 5378 5378 5377 5375 5374 5372 5370 5368 5366 5363 5361 5358 5356 5353 5351 5349 5346 5343 5340 5337 5335
5363 5362 5362 5361 5361 5361 5362 5363 5363 5364 5364 5365 5365 5366 5367 5368 5369 5370 5371 5372 5372 5373 5374 5374 5375 5375 5375 5375 5375 5375 5375 5375 5374 5373 5372 5370 5369 5368 5365 5363 5360 5357 5354 5350 5347 5344 5341 5338 5335 5333 5329 5327 5324 5322
5367 5366 5366 5365 5364 5363 5362 5362 5363 5364 5364 5365 5366 5367 5367 5368 5369 5370 5370 5371 5372 5372 5373 5373 5373 5373 5372 5372 5372 5371 5370 5369 5368 5367 5364 5362 5360 5358 5355 5352 5349 5346 5343 5339 5335 5332 5329 5326 5323 5321 5319 5317 5315 5313
5369 5369 5369 5367 5366 5365 5364 5363 5363 5363 5364 5364 5365 5366 5367 5367 5368 5368 5369 5369 5370 5370 5371 5371 5371 5370 5370 5369 5368 5367 5365 5364 5362 5361 5359 5356 5353 5350 5347 5342 5338 5334 5330 5327 5324 5321 5319 5317 5316 5315 5314 5313 5312 5311
5370 5370 5369 5368 5367 5367 5365 5365 5364 5365 5364 5364 5365 5365 5366 5367 5367 5368 5369 5369 5369 5369 5369 5368 5367 5366 5365 5364 5363 5361 5360 5358 5355 5353 5350 5348 5344 5341 5337 5334 5330 5327 5325 5322 5320 5318 5317 5317 5316 5315 5315 5314 5314 5313
5367 5367 5367 5367 5366 5366 5365 5365 5365 5364 5365 5365 5365 5365 5365 5366 5367 5367 5366 5366 5366 5365 5365 5364 5363 5362 5361 5359 5358 5357 5355 5353 5351 5348 5345 5341 5337 5334 5332 5330 5328 5326 5325 5323 5322 5321 5321 5320 5319 5318 5317 5316 5315 5314